Regional Weather Roundup
Issued by NWS Sterling, VA

Home | Current Version | Previous Version | Graphics & Text | Print | Product List | Glossary On
Versions: 1 2 3 4 5 6 7 8 9 10 11 12 13 14 15 16 17 18 19 20 21 22 23 24 25 26 27 28 29 30 31 32 33 34 35 36 37 38 39 40 41 42 43 44 45 46 47 48 49 50
000
ASUS41 KLWX 280510
RWRLWX

REGIONAL WEATHER ROUNDUP
NATIONAL WEATHER SERVICE BALTIMORE MD/WASHINGTON DC
1200 AM EST TUE FEB 28 2017

Note: "FAIR" indicates few or no clouds below 12,000 feet
with no significant weather and/or obstructions to visibility.
 TC=TEMPERATURE CELSIUS

 * =Non NWS site. Station does not report precipitation (e.g. rain,
    snow, etc.), thunder, or fog.

DCZ001-MDZ009-015-VAZ040>042-051-053>054-280600-
WASHINGTON METRO

CITY           SKY/WX    TMP DP  RH WIND       PRES   REMARKS
WASHINGTON NAT MOCLDY    49  34  56 SW3       30.37F
DULLES         MOCLDY    44  31  60 CALM      30.36S
ANDREWS AFB    CLOUDY    48  29  48 S8        30.35F
FT BELVOIR     CLOUDY    49  29  45 CALM      30.36F
QUANTICO       CLOUDY    50  40  68 SW6       30.37F
COLLEGE PARK*  CLOUDY    39  32  75 CALM      30.37S
LEESBURG*      CLOUDY    43  36  75 MISG      30.36S
MANASSAS*      CLOUDY    44  33  65 CALM      30.36S
GAITHERSBURG*  MOCLDY    45  28  53 SE6       30.39S

$$

MDZ006>007-011-014-280600-
BALTIMORE METRO

CITY           SKY/WX    TMP DP  RH WIND       PRES   REMARKS
BWI AIRPORT    CLOUDY    49  33  54 CALM      30.36S
MD SCIENCE CTR   N/A     50  34  54 MISG      30.37S
MARTIN STATE   CLOUDY    50  36  57 S5        30.38F
ANNAPOLIS      CLOUDY    49  39  68 S9        30.37F
FORT MEADE*    CLOUDY    41  34  75 CALM      30.39S

$$

MDZ012-015-019>023-280600-
MARYLAND EASTERN SHORE

CITY           SKY/WX    TMP DP  RH WIND       PRES   REMARKS
OCEAN CITY     CLOUDY    49  43  80 SE3       30.41F
SALISBURY      CLOUDY    47  41  80 E6        30.39F
BAY BRIDGE AP* CLOUDY    48  36  61 S5        30.37F
CAMBRIDGE*     CLOUDY    48  36  61 SE8       30.39S
EASTON*        CLOUDY    50  31  48 S7        30.41F

$$

MDZ017>025-280600-
SOUTHERN MARYLAND

CITY           SKY/WX    TMP DP  RH WIND       PRES   REMARKS
PATUXENT RIVER CLOUDY    50  40  68 SE9       30.38F
ST INIGOES     CLOUDY    50  39  66 SE7       30.38F
LEONARDTOWN*   CLOUDY    50  34  53 SE6       30.39F

$$

MDZ003>005-280600-
NORTH CENTRAL MARYLAND

CITY           SKY/WX    TMP DP  RH WIND       PRES   REMARKS
FREDERICK*     CLOUDY    39  34  81 CALM      30.39R
HAGERSTOWN APT CLOUDY    45  32  60 CALM      30.33S
WESTMINSTER*   MOCLDY    46  32  57 CALM      30.34S

$$

MDZ501>502-280600-
WESTERN MARYLAND

CITY           SKY/WX    TMP DP  RH WIND       PRES   REMARKS
OAKLAND*       CLOUDY    41  28  60 S12       30.27S
CUMBERLAND*    CLOUDY    43  37  81 CALM      30.35F

$$

VAZ025>031-280600-
SHENANDOAH VALLEY

CITY           SKY/WX    TMP DP  RH WIND       PRES   REMARKS
WINCHESTER*    CLOUDY    43  27  52 CALM      30.33S
FRONT ROYAL*   MOCLDY    50  27  40 CALM      30.33R
LURAY*         CLOUDY    48  32  53 S5        30.33S
NEW MARKET*    CLOUDY    40  30  67 CALM      30.33S
STAUNTON*      CLOUDY    44  29  54 CALM      30.35S
WAYNESBORO*    CLOUDY    48  24  39 CALM      30.34S

$$

WVZ021-048>050-054>055-280600-
EASTERN WEST VIRGINIA PANHANDLE

CITY           SKY/WX    TMP DP  RH WIND       PRES   REMARKS
MARTINSBURG    CLOUDY    42  27  55 CALM      30.33S
PETERSBURG*    CLOUDY    50  29  44 S6        30.32F

$$

VAZ036>039-050-280600-
CENTRAL FOOTHILLS

CITY           SKY/WX    TMP DP  RH WIND       PRES   REMARKS
CHARLOTTESVILL CLOUDY    49  28  44 CALM      30.35S
CULPEPER*      CLOUDY    44  35  71 N3        30.37S
ORANGE*        CLOUDY    50  30  46 CALM      30.36F
GORDONSVILLE*  CLOUDY    46  37  69 CALM      30.35S
WARRENTON*     CLOUDY    44  32  63 CALM      30.35S

$$

VAZ055>057-280600-
NORTH AND CENTRAL PIEDMONT

CITY           SKY/WX    TMP DP  RH WIND       PRES   REMARKS
FREDERICKSBRG* CLOUDY    51  32  48 SE5       30.35F
STAFFORD*      CLOUDY    49  32  51 CALM      30.40S

$$

NCZ024-NYZ072-PAZ021-071-VAZ022-071-280600-
OTHER REGIONAL OBSERVATIONS

CITY           SKY/WX    TMP DP  RH WIND       PRES   REMARKS
NEW YORK CITY  CLOUDY    49  30  48 CALM      30.41S
PHILADELPHIA   MOCLDY    47  32  56 S5        30.39F
PITTSBURGH     CLOUDY    39  38  96 SE3       30.24F
ROANOKE        CLOUDY    50  31  48 CALM      30.35S
RICHMOND       CLOUDY    49  38  65 E7        30.36F
RALEIGH        CLOUDY    59  45  59 SE9       30.34F

$$

ANZ530>537-280600-
MARINE OBSERVATIONS

STATION/POSITION TIME  TEMP    WIND        PRES
                       AIR SEA DIR/SP/G
                 (UTC) (F)     (DEG/KT/KT) (MB)
THOMAS PT LIGHT  0500   46 44  190/  5/  6   N/A
BALT KEY BRIDGE  0442   51     180/  9/ 10 1028.1F
COVE POINT       0442   46     190/  9/ 10 1029.5F
LEWISETTA        0442   51 49  170/  3/  3 1028.9S
SOLOMONS ISLAND  0442   50 45  150/  7/  8   N/A
PINEY POINT      0442          150/  8/  8   N/A

$$




USA.gov is the U.S. government's official web portal to all federal, state and local government web resources and services.